Volver al catálogo

COSMOS 1015

ActivoNavegaciónLEO
NORAD 10932·PAYLOAD·🇷🇺 Russia

Lanzado Jun 7, 1978 desde Plesetsk Cosmodrome

Loading…

Próximos Pases (próximas 24 horas)

TLE

ActualizadoSource: Space-Track

Época: Sep 14, 2026, 11:30 UTC

1 10932U 78056C   26257.47945758  .00000009  00000-0  17902-3 0  9993
2 10932  74.0276 158.7002 0027308   1.7257 109.1562 12.42817203189886

Sigue COSMOS 1015 en tiempo real con AllMySat

Download on the App Store